This is the latest recevied weather packets stored in our database for station/object K7VLL. If no packets are shown the sender has not sent any weather packets the latest 10 day(s).
| Time | Temp. | Humidity | Pressure | Rain* | Wind** | Luminosity | Snow |
|---|---|---|---|---|---|---|---|
| 1777971022 | 13.89° C | 92% | 1089.2 hPa | 0 mm | - | 0 W/m² | - |
| 1777969221 | 13.89° C | 92% | 1090.1 hPa | 1.78 mm | - | 0 W/m² | - |
| 1777967418 | 13.89° C | 92% | 1090.9 hPa | 1.78 mm | - | 0 W/m² | - |
| 1777965617 | 14.44° C | 92% | 1091.2 hPa | 4.83 mm | - | 0 W/m² | - |
| 1777963814 | 13.89° C | 91% | 1091.3 hPa | 1.78 mm | - | 0 W/m² | - |
| 1777962014 | 13.89° C | 90% | 1091.3 hPa | 1.27 mm | - | 0 W/m² | - |
| 1777960212 | 13.33° C | 89% | 1091.4 hPa | 1.78 mm | - | 0 W/m² | - |
| 1777958407 | 13.33° C | 88% | 1091.3 hPa | 1.27 mm | - | 0 W/m² | - |
| 1777956602 | 13.33° C | 87% | 1090.8 hPa | 0 mm | - | 0 W/m² | - |
| 1777954800 | 13.33° C | 81% | 1091 hPa | 1.27 mm | - | 0 W/m² | - |
| 1777952999 | 15° C | 66% | 1091.2 hPa | 0 mm | - | 0 W/m² | - |
| 1777951198 | 16.11° C | 57% | 1090.3 hPa | 0 mm | - | 0 W/m² | - |
| 1777949398 | 16.11° C | 60% | 1090.4 hPa | 0 mm | - | 2 W/m² | - |
| 1777947592 | 16.11° C | 60% | 1090.4 hPa | 0 mm | - | 2 W/m² | - |
| 1777945788 | 16.67° C | 61% | 1090.6 hPa | 1.78 mm | - | 2 W/m² | - |
| 1777943989 | 18.33° C | 48% | 1090.6 hPa | 0 mm | - | 8 W/m² | - |
| 1777942186 | 18.33° C | 48% | 1090.1 hPa | 0 mm | - | 19 W/m² | - |
| 1777940385 | 20.56° C | 36% | 1089.8 hPa | 0 mm | - | 39 W/m² | - |
| 1777938584 | 20.56° C | 40% | 1089.3 hPa | 0 mm | - | 50 W/m² | - |
| 1777936783 | 21.67° C | 38% | 1089.7 hPa | 0 mm | - | 46 W/m² | - |
| 1777934982 | 24.44° C | 24% | 1090.1 hPa | 0 mm | - | 56 W/m² | - |
| 1777933180 | 25.56° C | 18% | 1089.5 hPa | 0 mm | - | 97 W/m² | - |
| 1777931378 | 26.67° C | 17% | 1089.7 hPa | 0 mm | - | 105 W/m² | - |
| 1777929576 | 27.22° C | 15% | 1089.6 hPa | 0 mm | - | 283 W/m² | - |
| 1777927771 | 27.22° C | 15% | 1089.7 hPa | 0 mm | - | 212 W/m² | - |
* Rain latest hour (hover to see other rain measurements)
** Current wind speed in m/s (hover to see current wind gust speed)